[[{"header":{"parameterUnit":"m.s-1","parameterCategory":1,"la1":30.2991,"la2":30.254,"lo1":-89.0895,"lo2":-89.0444,"dy":0.0017,"dx":0.0017,"nx":28,"ny":28,"refTime":"2025-11-19T09:00:00:Z","depth":0,"parameterNumber":2,"parameterNumberName":"U-component_of_WINDS"},"data":[0,0,0,0,0,0,0,0,0,0,0,0,0,0,0,0,0,0,0,0,0,0,0,0,0,0,0,0,0,0,0,0,0,0,0,0,0,0,0,0,0,0,0,0,0,0,0,0,0,0,0,0,0,0,0,0,0,0,-0.6224,-0.6224,0,-0.6247,-0.6247,-0.6247,-0.6242,-0.6241,-0.6241,-0.624,-0.6265,-0.6266,-0.6267,0,0,0,0,0,0,0,0,0,0,0,0,0,-0.6178,-0.6179,-0.6224,-0.6224,-0.6224,-0.6246,-0.6247,-0.6247,-0.6242,-0.6241,-0.6241,-0.624,-0.6264,-0.6265,-0.6267,0,0,0,0,0,0,0,0,0,0,0,0,0,-0.6199,-0.6179,-0.6224,-0.6224,-0.6225,-0.6246,-0.6247,-0.6247,-0.6242,-0.6241,-0.6241,-0.624,-0.6264,-0.6265,-0.6267,-0.629,0,0,-0.6272,-0.6272,0,0,0,0,0,0,0,0,-0.6198,-0.6201,-0.6224,-0.6224,-0.6225,-0.6241,-0.6239,-0.6261,-0.6242,-0.6235,-0.624,-0.624,-0.6257,-0.6259,-0.6265,-0.6291,-0.6292,-0.6272,-0.6273,-0.6273,-0.6274,0,0,0,0,0,0,0,-0.6196,-0.62,-0.6233,-0.6224,-0.6225,-0.6224,-0.6226,-0.6244,-0.625,-0.6236,-0.6236,-0.6238,-0.6257,-0.6263,-0.6265,-0.6292,-0.6272,-0.6273,-0.6274,-0.6275,-0.634,-0.6341,0,0,0,0,0,0,-0.6194,-0.6199,-0.6232,-0.6233,-0.6209,-0.6226,-0.6228,-0.6236,-0.6249,-0.6251,-0.6239,-0.6238,-0.6261,-0.6264,-0.6266,-0.6295,-0.6273,-0.6275,-0.6276,-0.6339,-0.634,-0.6341,0,0,0,0,0,0,-0.6193,-0.6197,-0.6231,-0.6216,-0.622,-0.6227,-0.6236,-0.6237,-0.6243,-0.6252,-0.6253,-0.6244,-0.6261,-0.6264,-0.6284,-0.6296,-0.6276,-0.6277,-0.6338,-0.634,-0.6341,-0.6352,0,0,0,0,0,0,-0.6192,-0.6197,-0.6205,-0.6216,-0.6221,-0.6248,-0.6237,-0.6238,-0.6246,-0.6245,-0.6257,-0.6258,-0.626,-0.6282,-0.6286,-0.6297,-0.6278,-0.6337,-0.6339,-0.634,-0.635,-0.6353,-0.6355,0,0,0,0,0,-0.6191,-0.6207,-0.6206,-0.621,-0.6231,-0.6249,-0.6252,-0.6254,-0.6247,-0.6255,-0.6261,-0.6258,-0.6294,-0.6284,-0.6288,-0.6301,-0.6337,-0.6338,-0.634,-0.6349,-0.6353,-0.6355,0,0,0,0,0,0,-0.6197,-0.6209,-0.6207,-0.6228,-0.6237,-0.6248,-0.6259,-0.6257,-0.6269,-0.6267,-0.627,-0.6273,-0.6294,-0.6299,-0.6288,-0.6324,-0.6314,-0.6317,-0.632,-0.6323,-0.6326,-0.6324,-0.628,0,0,0,0,0,-0.6201,-0.6214,-0.6223,-0.6241,-0.6246,-0.6252,-0.6259,-0.626,-0.627,-0.6274,-0.6281,-0.6292,-0.6306,-0.6315,-0.6328,-0.6351,-0.6355,-0.6362,-0.6365,-0.6367,-0.6369,-0.6383,-0.6387,-0.6347,-0.6347,-0.6347,0,0,-0.6209,-0.6217,-0.6225,-0.6242,-0.625,-0.6264,-0.6255,-0.627,-0.628,-0.6277,-0.6296,-0.6302,-0.6314,-0.6336,-0.6347,-0.6342,-0.6381,-0.6369,-0.6371,-0.6372,-0.6386,-0.6389,-0.6393,-0.6348,-0.6348,-0.6348,0,0,-0.6231,-0.6238,-0.6254,-0.6262,-0.6274,-0.6278,-0.6282,-0.6293,-0.6297,-0.6317,-0.6315,-0.6328,-0.6351,-0.636,-0.6368,-0.6396,-0.6393,-0.64,-0.6413,-0.6427,-0.643,-0.6433,-0.6444,-0.6447,-0.6402,-0.6402,-0.6402,0,-0.624,-0.626,-0.6262,-0.6278,-0.6286,-0.6284,-0.6301,-0.6308,-0.6324,-0.633,-0.6325,-0.6355,-0.6363,-0.6388,-0.6395,-0.6401,-0.6406,-0.6398,-0.6429,-0.6432,-0.6435,-0.6445,-0.6449,-0.6403,-0.6403,-0.6403,-0.6403,0,-0.6271,-0.6285,-0.6297,-0.6312,-0.6322,-0.6338,-0.6343,-0.6353,-0.6353,-0.6358,-0.638,-0.6389,-0.6405,-0.6411,-0.6411,-0.6437,-0.6433,-0.6429,-0.6419,-0.644,-0.6449,-0.6453,-0.6404,-0.6404,-0.6404,-0.6403,0,0,-0.6297,-0.6314,-0.6318,-0.6326,-0.6339,-0.6351,-0.6368,-0.6383,-0.6392,-0.6403,-0.6418,-0.6439,-0.6435,-0.6444,-0.6445,-0.6458,-0.648,-0.6452,-0.6452,-0.6457,-0.651,-0.6513,-0.6518,-0.6479,-0.648,-0.648,-0.6509,0,-0.632,-0.6349,-0.6352,-0.6378,-0.6392,-0.6391,-0.6406,-0.6416,-0.6422,-0.6435,-0.6442,-0.6457,-0.645,-0.6456,-0.6468,-0.6475,-0.6491,-0.6473,-0.6493,-0.6494,-0.649,-0.6523,-0.6526,-0.6552,-0.6513,-0.6513,-0.6514,0,-0.6351,-0.6364,-0.6391,-0.6404,-0.641,-0.6423,-0.6438,-0.6451,-0.6463,-0.6467,-0.6477,-0.6478,-0.6497,-0.6486,-0.6512,-0.65,-0.6509,-0.6514,-0.6515,-0.6517,-0.6505,-0.6526,-0.6561,-0.6565,-0.652,-0.6519,-0.6519,0,-0.6368,-0.6392,-0.6411,-0.6418,-0.6433,-0.6443,-0.645,-0.6462,-0.6471,-0.6485,-0.6492,-0.6507,-0.6516,-0.6529,-0.6534,-0.6526,-0.656,-0.655,-0.6564,-0.6564,-0.6571,-0.6571,-0.6608,-0.6577,-0.6577,-0.6577,-0.6576,0,-0.6394,-0.6411,-0.6419,-0.6431,-0.6451,-0.6455,-0.6474,-0.6481,-0.6492,-0.6507,-0.6507,-0.6521,-0.6527,-0.6542,-0.6546,-0.6568,-0.6572,-0.6576,-0.6577,-0.6576,-0.6575,-0.6581,-0.658,-0.6578,-0.6577,-0.6577,-0.6577,0,-0.6415,-0.6422,-0.6443,-0.6457,-0.6461,-0.6474,-0.6486,-0.6499,-0.6505,-0.6523,-0.6528,-0.6537,-0.6555,-0.6562,-0.6583,-0.6587,-0.6612,-0.6611,-0.6607,-0.6608,-0.6622,-0.662,-0.6665,-0.6671,-0.6635,-0.6635,-0.6636,0,-0.6431,-0.6444,-0.646,-0.6469,-0.6477,-0.6492,-0.6502,-0.6507,-0.6518,-0.6534,-0.6545,-0.6563,-0.6577,-0.6606,-0.6615,-0.6632,-0.6632,-0.6647,-0.6635,-0.6634,-0.6633,-0.6632,-0.6634,-0.6649,-0.6649,-0.6649,-0.665,0,-0.646,-0.6463,-0.6477,-0.6492,-0.6504,-0.6517,-0.6529,-0.6537,-0.6545,-0.6557,-0.6575,-0.6586,-0.6609,-0.6627,-0.6645,-0.6653,-0.6653,-0.6654,-0.6658,-0.6657,-0.6654,-0.6657,-0.6614,-0.6652,-0.6652,-0.6652,-0.6652,-0.6652,-0.6479,-0.6491,-0.6504,-0.6521,-0.6531,-0.6543,-0.6555,-0.6563,-0.6578,-0.6597,-0.66,-0.6619,-0.6633,-0.6657,-0.6667,-0.6683,-0.6679,-0.6685,-0.6687,-0.6688,-0.6689,-0.6652,-0.6686,-0.6686,-0.6686,-0.6686,-0.6686,0,-0.6508,-0.6517,-0.6532,-0.6549,-0.6562,-0.6561,-0.6575,-0.6587,-0.6604,-0.6617,-0.6631,-0.6653,-0.6671,-0.6682,-0.6701,-0.6712,-0.6712,-0.6716,-0.6716,-0.6718,-0.6691,-0.6686,-0.6716,-0.6716,-0.6716,-0.6716,-0.6716,-0.6716,-0.6525,-0.6545,-0.655,-0.6576,-0.6585,-0.6604,-0.6612,-0.6624,-0.6635,-0.6659,-0.6674,-0.6681,-0.6694,-0.6713,-0.673,-0.6733,-0.674,-0.6745,-0.6748,-0.6723,-0.672,-0.6717,-0.6712,-0.6746,-0.6746,-0.6773,-0.6773,-0.6773]},{"header":{"parameterUnit":"m.s-1","parameterCategory":1,"la1":30.2991,"la2":30.254,"lo1":-89.0895,"lo2":-89.0444,"dy":0.0017,"dx":0.0017,"nx":28,"ny":28,"refTime":"2025-11-19T09:00:00:Z","depth":0,"parameterNumber":3,"parameterNumberName":"V-component_of_WINDS"},"data":[0,0,0,0,0,0,0,0,0,0,0,0,0,0,0,0,0,0,0,0,0,0,0,0,0,0,0,0,0,0,0,0,0,0,0,0,0,0,0,0,0,0,0,0,0,0,0,0,0,0,0,0,0,0,0,0,0,0,1.444,1.444,0,1.4409,1.4408,1.4408,1.437,1.437,1.4369,1.4369,1.4335,1.4334,1.4334,0,0,0,0,0,0,0,0,0,0,0,0,0,1.4467,1.4467,1.444,1.444,1.4439,1.4409,1.4408,1.4408,1.4371,1.437,1.4369,1.4368,1.4335,1.4334,1.4334,0,0,0,0,0,0,0,0,0,0,0,0,0,1.4447,1.4467,1.444,1.4417,1.4415,1.4409,1.4408,1.4408,1.4371,1.437,1.4369,1.4368,1.4335,1.4334,1.4334,1.4347,0,0,1.4332,1.4332,0,0,0,0,0,0,0,0,1.4448,1.4446,1.4421,1.4419,1.4416,1.4393,1.4405,1.4387,1.4371,1.4387,1.4369,1.4368,1.4354,1.4352,1.4348,1.4346,1.4344,1.4332,1.4332,1.4331,1.4331,0,0,0,0,0,0,0,1.445,1.4447,1.4428,1.4421,1.4418,1.4408,1.4404,1.4402,1.4376,1.4386,1.4383,1.438,1.4353,1.4349,1.4347,1.4344,1.4332,1.4332,1.4331,1.4331,1.435,1.4351,0,0,0,0,0,0,1.4455,1.4449,1.4429,1.4427,1.4431,1.4408,1.4404,1.4401,1.4376,1.4371,1.4381,1.4378,1.435,1.4348,1.4346,1.4359,1.4331,1.4331,1.4331,1.4349,1.435,1.4351,0,0,0,0,0,0,1.4456,1.4453,1.443,1.4437,1.4433,1.4409,1.4406,1.4401,1.4397,1.4372,1.4367,1.4381,1.4349,1.4347,1.4347,1.4358,1.4331,1.433,1.4348,1.435,1.4351,1.4387,0,0,0,0,0,0,1.4457,1.4454,1.4459,1.4437,1.4433,1.4432,1.4406,1.4401,1.4396,1.4392,1.4371,1.4367,1.4349,1.4348,1.4347,1.4356,1.433,1.4347,1.4349,1.435,1.4385,1.4389,1.4393,0,0,0,0,0,1.4458,1.447,1.446,1.4457,1.4439,1.4433,1.4431,1.441,1.4397,1.4402,1.4386,1.4368,1.4357,1.4349,1.4346,1.4356,1.4346,1.4348,1.435,1.4383,1.4388,1.4393,0,0,0,0,0,0,1.4493,1.4467,1.4455,1.4461,1.445,1.4427,1.4432,1.4416,1.4408,1.4405,1.4379,1.4374,1.4378,1.4367,1.4358,1.4368,1.4349,1.4351,1.4374,1.438,1.4384,1.4386,1.4329,0,0,0,0,0,1.4502,1.45,1.4477,1.4485,1.448,1.4457,1.4454,1.4439,1.4426,1.442,1.4405,1.4392,1.4386,1.4382,1.4375,1.4383,1.4378,1.4389,1.4393,1.4397,1.4398,1.4401,1.4405,1.4357,1.4357,1.4357,0,0,1.452,1.4505,1.4505,1.4491,1.4481,1.4478,1.4453,1.4452,1.445,1.442,1.4419,1.4408,1.4392,1.4396,1.4397,1.4387,1.441,1.4399,1.4402,1.4402,1.4403,1.4408,1.4412,1.4359,1.4359,1.4358,0,0,1.4551,1.454,1.4545,1.4535,1.4519,1.4504,1.4506,1.4485,1.4476,1.4476,1.4453,1.445,1.444,1.443,1.4423,1.4451,1.4433,1.4449,1.4471,1.4474,1.4478,1.4481,1.449,1.4494,1.4451,1.4451,1.4451,0,1.4574,1.4571,1.4549,1.4549,1.4544,1.4517,1.4522,1.4513,1.4496,1.4492,1.4481,1.4468,1.4456,1.4457,1.4464,1.446,1.446,1.4451,1.4479,1.4482,1.4485,1.4493,1.4496,1.4453,1.4453,1.4452,1.4452,0,1.46,1.4598,1.4604,1.4588,1.4583,1.4586,1.4564,1.4562,1.4547,1.4533,1.4533,1.4517,1.4506,1.4505,1.4491,1.4505,1.4499,1.4484,1.4465,1.4492,1.4499,1.4502,1.4456,1.4455,1.4454,1.4454,0,0,1.4652,1.4625,1.4627,1.462,1.4601,1.4599,1.46,1.459,1.4588,1.4577,1.4577,1.4569,1.4555,1.4548,1.4532,1.4535,1.4557,1.452,1.4519,1.4526,1.457,1.458,1.4584,1.4546,1.4546,1.4546,1.4571,0,1.4678,1.4679,1.466,1.4666,1.4663,1.4638,1.4639,1.4627,1.4614,1.461,1.4595,1.459,1.4573,1.4568,1.457,1.4554,1.4565,1.4552,1.4544,1.4544,1.4548,1.4588,1.4599,1.4623,1.4573,1.4574,1.4574,0,1.4709,1.4701,1.4707,1.4688,1.4686,1.4687,1.4676,1.4672,1.4658,1.4649,1.4641,1.4623,1.4622,1.4605,1.4602,1.4594,1.4589,1.4581,1.4582,1.4579,1.456,1.4586,1.463,1.4633,1.4579,1.4578,1.4578,0,1.4746,1.4736,1.4738,1.4732,1.471,1.4711,1.4702,1.4688,1.4683,1.4673,1.467,1.466,1.4654,1.4647,1.4627,1.4616,1.4627,1.4608,1.4618,1.4618,1.462,1.462,1.4663,1.4619,1.4619,1.4619,1.4619,0,1.4777,1.4781,1.4753,1.4755,1.4758,1.4736,1.474,1.4729,1.4716,1.4714,1.4692,1.469,1.4664,1.466,1.4644,1.4644,1.4642,1.4633,1.4629,1.4635,1.4636,1.4631,1.4628,1.462,1.462,1.462,1.4619,0,1.4817,1.4799,1.4799,1.4779,1.4774,1.4777,1.4759,1.4759,1.4745,1.4743,1.4741,1.4719,1.4712,1.4692,1.468,1.4669,1.4673,1.4666,1.4678,1.4675,1.4686,1.4685,1.4727,1.4731,1.4686,1.4686,1.4686,0,1.4838,1.4841,1.4821,1.4818,1.481,1.4806,1.4801,1.4779,1.4775,1.476,1.4761,1.4753,1.4745,1.4735,1.4717,1.4708,1.4699,1.4715,1.4698,1.4703,1.4698,1.4698,1.4698,1.4718,1.4719,1.4719,1.4719,0,1.4876,1.4867,1.4861,1.4852,1.4847,1.4839,1.483,1.4829,1.4804,1.4801,1.4794,1.4788,1.4776,1.4767,1.4755,1.4745,1.4728,1.4725,1.4727,1.4732,1.4739,1.4735,1.4687,1.4724,1.4724,1.4723,1.4723,1.4723,1.4907,1.4908,1.4894,1.4888,1.4879,1.487,1.4869,1.4855,1.485,1.4839,1.4826,1.4821,1.4806,1.4788,1.4779,1.4774,1.4765,1.4768,1.4768,1.4769,1.4771,1.4741,1.4772,1.4772,1.4772,1.4772,1.4771,0,1.4943,1.4933,1.4928,1.4916,1.4911,1.4897,1.4885,1.4882,1.4878,1.4866,1.4859,1.4851,1.4843,1.4825,1.4815,1.4814,1.4806,1.4812,1.4812,1.4809,1.4781,1.478,1.4819,1.4819,1.4819,1.4819,1.4819,1.4819,1.4961,1.4962,1.4952,1.4948,1.4938,1.4933,1.4927,1.4919,1.491,1.4902,1.4896,1.4884,1.487,1.4859,1.4851,1.4845,1.4842,1.4851,1.4843,1.4816,1.4812,1.4807,1.4806,1.4851,1.4851,1.4872,1.4872,1.4872]}]]